Regional Weather Roundup
Issued by NWS

Home | Current Version | Previous Version | Graphics & Text | Print | Product List | Glossary On
Versions: 1 2 3 4 5 6 7 8 9 10 11 12 13 14 15 16 17 18 19 20 21 22 23 24 25 26 27 28 29 30 31 32 33 34 35 36 37 38 39 40 41 42 43 44 45 46 47 48 49 50
000
ASUS43 KTOP 132159
RWRKS

WEATHER ROUNDUP FOR KANSAS
NATIONAL WEATHER SERVICE GOODLAND KS
400 PM CST SAT FEB 13 2016

NOTE:  "FAIR" INDICATES FEW OR NO CLOUDS BELOW 12,000 FEET WITH NO
SIGNIFICANT WEATHER AND/OR OBSTRUCTIONS TO VISIBILITY.

KSZ001>006-013>018-027>032-041>047-132300-
NORTHWEST KANSAS

CITY           SKY/WX    TMP DP  RH WIND       PRES   REMARKS
GOODLAND       CLOUDY    30  29  96 S8        29.99F FOG
HAYS           CLOUDY    37  12  35 SE14G21   30.11F WCI  29
HILL CITY      CLOUDY    36  20  52 SE13      30.10F WCI  27
RUSSELL        CLOUDY    36  17  46 SE16      30.13F WCI  26
$$

KSZ061>065-074>080-084>089-132300-
SOUTHWEST KANSAS

CITY           SKY/WX    TMP DP  RH WIND       PRES   REMARKS
DODGE CITY     CLOUDY    44  24  45 SE17      30.03F
ELKHART          N/A     75  30  19 S15         N/A
GARDEN CITY    CLOUDY    52  30  43 S16G24    29.96F
GREAT BEND     CLOUDY    39  18  41 S16       30.13F WCI  30
LIBERAL        SUNNY     66  37  34 S18       29.94F
$$

KSZ066>073-081>083-090>101-132300-
SOUTHEAST KANSAS

CITY           SKY/WX    TMP DP  RH WIND       PRES   REMARKS
CHANUTE        MOSUNNY   40   5  23 E14       30.27F WCI  32
COFFEYVILLE    CLOUDY    46   9  22 E13       30.26F
HUTCHINSON     CLOUDY    41   9  26 SE12      30.18F
MEDICINE LODGE   N/A     45  21  38 S12G18    30.11F
NEWTON         MOSUNNY   37   7  28 SE17G23   30.18F WCI  28
PARSONS        CLOUDY    43   7  22 VRB7      30.27F
WICHITA INTL   CLOUDY    44  10  25 SE16G25   30.16F
WICHITA JABRA  CLOUDY    42   8  24 SE17G26   30.16F
WICHITA MCCONL SUNNY     44  10  25 E18       30.16F
WINFIELD       SUNNY     46  14  27 SE14      30.19F
$$

KSZ007>012-019>026-033>040-048>060-102>105-132300-
NORTHEAST KANSAS

CITY           SKY/WX    TMP DP  RH WIND       PRES   REMARKS
CONCORDIA      CLOUDY    30   5  34 E12       30.21F WCI  20
EMPORIA        CLOUDY    33   4  29 E20       30.24F WCI  21
LAWRENCE       CLOUDY    24   1  36 E17       30.37F WCI  11
MANHATTAN      MOSUNNY   30   2  30 E17       30.27F WCI  18
OLATHE IND     CLOUDY    22   3  44 E14       30.37F WCI   9
OLATHE EXE     CLOUDY    21   2  43 SE10      30.37F WCI  10
SALINA         CLOUDY    39   3  22 SE14      30.21F WCI  31
TOPEKA BILLARD CLOUDY    26   0  32 E16       30.35F WCI  14
TOPEKA FORBES  CLOUDY    26   3  37 E15G22    30.31F WCI  14
$$



USA.gov is the U.S. government's official web portal to all federal, state and local government web resources and services.